Hourly Data Report for October 07, 2003

TORONTO CITY
ONTARIO

43°40'00.000" N
79°24'00.000" W
112.50 m
6158355
71508
XTO

Download Data

Hourly Data (October 2003)
Hourly Data Report for October 7, 2003
TIME
LST
Temp Definition
°C
Dew Point Definition
°C
Rel Hum Definition
%
Precip. Amount Definition
mm

Wind Dir Definition
10's deg

Wind Spd Definition
km/h
Visibility Definition
km
Stn Press Definition
kPa
Hmdx Definition


Wind Chill Definition


Weather Definition


00:00 6.0 2.6 79   LegendMM LegendMM LegendMM 100.55     LegendNANA
01:00 6.2 2.5 77   LegendMM LegendMM LegendMM 100.57     LegendNANA
02:00 5.9 1.8 75   LegendMM LegendMM LegendMM 100.58     LegendNANA
03:00 5.1 2.5 83   LegendMM LegendMM LegendMM 100.57     LegendNANA
04:00 3.7 1.9 88   LegendMM LegendMM LegendMM 100.61     LegendNANA
05:00 3.2 2.0 92   LegendMM LegendMM LegendMM 100.64     LegendNANA
06:00 2.7 1.8 94   LegendMM LegendMM LegendMM 100.67     LegendNANA
07:00 3.7 2.6 93   LegendMM LegendMM LegendMM 100.69     LegendNANA
08:00 7.0 2.4 72   LegendMM LegendMM LegendMM 100.73     LegendNANA
09:00 8.9 2.4 64   LegendMM LegendMM LegendMM 100.74     LegendNANA
10:00 12.1 2.8 53   LegendMM LegendMM LegendMM 100.72     LegendNANA
11:00 13.4 3.1 50   LegendMM LegendMM LegendMM 100.69     LegendNANA
12:00 14.0 2.8 47   LegendMM LegendMM LegendMM 100.65     LegendNANA
13:00 15.6 3.3 44   LegendMM LegendMM LegendMM 100.57     LegendNANA
14:00 15.2 3.0 44   LegendMM LegendMM LegendMM 100.51     LegendNANA
15:00 14.8 4.4 50   LegendMM LegendMM LegendMM 100.45     LegendNANA
16:00 14.8 4.9 51   LegendMM LegendMM LegendMM 100.42     LegendNANA
17:00 13.6 5.7 59   LegendMM LegendMM LegendMM 100.42     LegendNANA
18:00 13.0 6.9 66   LegendMM LegendMM LegendMM 100.43     LegendNANA
19:00 11.9 6.6 70   LegendMM LegendMM LegendMM 100.45     LegendNANA
20:00 11.2 6.2 71   LegendMM LegendMM LegendMM 100.45     LegendNANA
21:00 10.6 6.6 76   LegendMM LegendMM LegendMM 100.48     LegendNANA
22:00 9.8 6.6 80   LegendMM LegendMM LegendMM 100.50     LegendNANA
23:00 8.8 6.1 83   LegendMM LegendMM LegendMM 100.51     LegendNANA

Notes on Data Quality.

Legend

  • E = Estimated
  • M = Missing
  • NA = Not Available*
  • [empty] = Indicates an unobserved value
Date modified: